Location: Unspecified
(0.0000°N, 0.0000°E)
Time: 21:51:24
(UTC+00:00)

Tiros 1 - Pass Details

Date: 27 October 2021
Orbit: 630 x 664 km, 48.4° (Epoch: 04 December)

Event Time Altitude Azimuth Distance (km) Brightness Sun altitude
Rises 06:42:51 0° 243° (WSW) 2,983 10.1 14.4°
Reaches altitude 10° 06:45:37 10° 258° (WSW) 2,072 9.3 15.0°
Maximum altitude 06:49:21 22° 309° (NW) 1,416 8.5 15.9°
Drops below altitude 10° 06:53:04 10° 1° (N) 2,068 9.7 16.8°
Sets 06:55:51 0° 16° (NNE) 2,976 10.6 17.5°
